Simultaneous Nadir Overpasses (SNOs) Predictions

Prediction of SNOs between METOP-B and TERRA Satellite Orbit:

Table of predicted SNOs for the next 14.0 days since TLE Epoch: 6/15/2019
Index Date (METOP-B) Time (METOP-B) Lat,Lon (METOP-B) SZA (METOP-B ) Date (TERRA) Time (TERRA) Lat,Lon (TERRA) SZA (TERRA ) Distance(km) Time Diff (sec)
1 06/16/2019 15:06:41 81.31, 0.46 60.86 06/16/2019 15:07:42 81.30, 0.29 60.86 2.96 61
2 06/16/2019 15:57:21 -81.31, 168.25 119.09 06/16/2019 15:57:08 -81.32, 168.19 119.10 1.04 13
3 06/19/2019 10:41:03 81.30, 66.75 60.76 06/19/2019 10:41:55 81.30, 66.70 60.77 0.89 52
4 06/19/2019 11:31:43 -81.31,-125.46 119.19 06/19/2019 11:31:21 -81.32,-125.36 119.19 1.75 22
5 06/22/2019 06:15:26 81.30, 133.02 60.71 06/22/2019 06:16:09 81.30, 133.09 60.73 1.31 43
6 06/22/2019 07:06:05 -81.31, -58.78 119.19 06/22/2019 07:05:35 -81.31, -58.94 119.22 2.63 30
7 06/25/2019 01:49:48 81.31,-160.32 60.76 06/25/2019 01:50:22 81.31,-160.18 60.80 2.52 34
8 06/25/2019 02:40:28 -81.31, 7.49 119.19 06/25/2019 02:39:49 -81.31, 7.45 119.21 0.63 39
9 06/27/2019 21:24:09 81.31, -93.68 60.86 06/27/2019 21:24:35 81.31, -93.86 60.85 3.02 26




NCC Satellite Simultaneous Nadir Overpasses (SNOs) Prediction Service
